Flag for U.S.A. Weather past 2 weeks in Beaumont, Texas, U.S.A.

Now
62 °F

Clear.


Feels Like: 62 °F
Forecast: 62 / 82 °F
Wind: 3 mph from Southeast

Location: Jefferson County Airport

Current Time: May 4, 2015 at 7:16:09 AM

Latest Report: May 4, 2015 at 5:53 AM


Visibility: 10 mi

Pressure: 30.04 "Hg

Humidity: 93%

Dew point: 60 °F

Location of BeaumontLocation

Historic Weather in Beaumont — Graph

°F

Beaumont temperature yesterday

Maximum temperature yesterday: 83 °F (at 12:53 PM)
Minimum temperature yesterday: 59 °F (at 3:53 AM)
Average temperature yesterday: 71 °F

Past Weeks' High & Low Weather Summary

 TemperatureHumidityPressure
High87 °F (Apr 23, 3:53 PM)100% (Apr 23, 7:00 AM)30.09 "Hg (Apr 23, 7:00 AM)
Low52 °F (Apr 29, 4:53 AM)29% (Apr 30, 12:53 PM)29.55 "Hg (Apr 26, 8:53 PM)
Average71 °F75%29.89 "Hg
* Reported Apr 19 5:53 AM — May 4 5:53 AM, Beaumont, Weather by CustomWeather, © 2015

Note: Actual official high and low records may vary slightly from our data, if they occured in-between our weather recording intervals... More about our weather records

Advertising

Beaumont weather history for previous 24 hours

 ConditionsComfort  
Time TempWeatherWind HumidityBarometerVisibility
5:53 AM
Mon, May 4
62 °FClear.3 mph93%30.04 "Hg10 mi
4:53 AM65 °FClear.3 mph87%30.03 "Hg10 mi
3:53 AM66 °FClear.7 mph84%30.03 "Hg10 mi
2:53 AM64 °FClear.6 mph87%30.04 "Hg10 mi
1:53 AM65 °FClear.7 mph85%30.04 "Hg9 mi
12:53 AM64 °FClear.7 mph84%30.05 "Hg10 mi
11:53 PM
Sun, May 3
66 °FClear.5 mph78%30.05 "Hg10 mi
10:53 PM65 °FClear.5 mph78%30.06 "Hg10 mi
9:53 PM67 °FClear.3 mph73%30.05 "Hg10 mi
8:53 PM67 °FSunny.7 mph73%30.04 "Hg10 mi
7:53 PM70 °FSunny.6 mph68%30.03 "Hg10 mi
6:53 PM77 °FSunny.9 mph52%30.03 "Hg10 mi
5:53 PM80 °FPassing clouds.10 mph47%30.02 "Hg10 mi
4:53 PM81 °FPassing clouds.8 mph47%30.03 "Hg10 mi
3:53 PM82 °FScattered clouds.12 mph46%30.04 "Hg10 mi
2:53 PM81 °FScattered clouds.10 mph47%30.06 "Hg10 mi
1:53 PM82 °FPassing clouds.10 mph46%30.07 "Hg10 mi
12:53 PM83 °FSunny.8 mph43%30.08 "Hg10 mi
11:53 AM80 °FScattered clouds.6 mph42%30.09 "Hg10 mi
10:53 AM80 °FScattered clouds.6 mph44%30.09 "Hg10 mi
9:53 AM77 °FSunny.9 mph54%30.08 "Hg10 mi
8:53 AM71 °FScattered clouds.No wind76%30.07 "Hg10 mi
7:53 AM68 °FSunny.N/A87%30.05 "Hg10 mi
Weather by CustomWeather, © 2015

See weather overviewHow to use our weather pages